Flag for U.S.A. Weather past 2 weeks in Pullman, Washington, U.S.A.

Now
69 °F

Clear.


Feels Like: 69 °F
Forecast: 56 / 76 °F
Wind: No wind

Location: Pullman / Moscow Regional Airport

Current Time: Aug 19, 2014 at 10:06:22 PM

Latest Report: Aug 19, 2014 at 8:53 PM


Visibility: 10 mi

Pressure: 29.68 "Hg

Humidity: 39%

Dew point: 43 °F

Location of PullmanLocation

Historic Weather in Pullman — Graph

°F

Pullman temperature yesterday

Maximum temperature yesterday: 89 °F (at 2:53 PM)
Minimum temperature yesterday: 54 °F (at 2:53 AM)
Average temperature yesterday: 72 °F

Past Weeks' High & Low Weather Summary

 TemperatureHumidityPressure
High99 °F (Aug 11, 3:53 PM)93% (Aug 15, 1:53 AM)30.13 "Hg (Aug 15, 1:53 AM)
Low43 °F (Aug 9, 5:53 AM)12% (Aug 10, 5:53 PM)29.67 "Hg (Aug 19, 6:53 PM)
Average70 °F49%29.97 "Hg
* Reported Aug 4 8:53 PM — Aug 19 8:53 PM, Pullman, Weather by CustomWeather, © 2014

Note: Actual official high and low records may vary slightly from our data, if they occured in-between our weather recording intervals... More about our weather records

Advertising

Pullman weather history for previous 24 hours

 ConditionsComfort  
Time TempWeatherWind HumidityBarometerVisibility
8:53 PM
Aug 19
69 °FClear.No wind39%29.68 "Hg10 mi
7:53 PM75 °FSunny.5 mph28%29.67 "Hg10 mi
6:53 PM82 °FSunny.13 mph22%29.67 "Hg10 mi
5:53 PM83 °FSunny.14 mph24%29.67 "Hg10 mi
4:53 PM85 °FSunny.12 mph25%29.67 "Hg10 mi
3:53 PM84 °FSunny.16 mph26%29.70 "Hg10 mi
2:53 PM84 °FSunny.14 mph26%29.71 "Hg10 mi
1:53 PM85 °FSunny.12 mph31%29.72 "Hg10 mi
12:53 PM83 °FSunny.6 mph34%29.74 "Hg10 mi
11:53 AM84 °FSunny.10 mph32%29.75 "Hg10 mi
10:53 AM83 °FSunny.8 mph30%29.76 "Hg10 mi
9:53 AM80 °FSunny.6 mph34%29.76 "Hg10 mi
8:53 AM76 °FSunny.3 mph37%29.76 "Hg10 mi
7:53 AM70 °FSunny.No wind49%29.77 "Hg10 mi
6:53 AM57 °FSunny.No wind72%29.77 "Hg10 mi
5:53 AM53 °FClear.No wind74%29.77 "Hg10 mi
4:53 AM53 °FClear.No wind74%29.76 "Hg10 mi
3:53 AM54 °FClear.No wind74%29.76 "Hg10 mi
2:53 AM56 °FClear.No wind70%29.76 "Hg10 mi
1:53 AM56 °FClear.No wind70%29.77 "Hg10 mi
12:53 AM58 °FClear.No wind65%29.77 "Hg10 mi
11:53 PM
Aug 18
59 °FClear.No wind64%29.78 "Hg10 mi
10:53 PM62 °FClear.No wind58%29.78 "Hg10 mi
Weather by CustomWeather, © 2014

See weather overviewHow to use our weather pages